Home   Weather   Arctic Village   Past weeks
Flag for USA

Past Weather in Arctic Village, Alaska, USA — Yesterday and Last 2 Weeks

Now
-15 °F

Mostly cloudy.


Feels Like: -25 °F
Forecast: -7 / -13 °F
Wind: 3 mph from North

Location: Arctic Village Airport

Current Time: Jan 24, 2020 at 12:26:56 am

Latest Report: Jan 23, 2020 at 11:56 pm


Visibility: 8 mi

Pressure: 30.08 "Hg (27.58 "Hg at 627m altitude)

Humidity: 77%

Dew Point: -20 °F

Location of Arctic VillageLocation

Past Weather in Arctic Village — Graph

°F

Arctic Village Temperature Yesterday

Maximum temperature yesterday: -11 °F (at 1:56 pm)
Minimum temperature yesterday: -35 °F (at 3:56 am)
Average temperature yesterday: -23 °F

High & Low Weather Summary for the Past Weeks

 TemperatureHumidityPressure
High-7 °F (Jan 21, 11:56 am)83% (Jan 21, 9:56 am)30.94 "Hg (Jan 21, 9:56 am)
Low-49 °F (Jan 8, 11:38 pm)71% (Jan 14, 10:56 pm)29.44 "Hg (Jan 19, 10:41 am)
Average-35 °F75%30.27 "Hg
* Reported Jan 8 10:03 pm — Jan 23 10:56 pm, Arctic Village. Weather by CustomWeather, © 2020

Note: Actual official high and low records may vary slightly from our data, if they occured in-between our weather recording intervals... More about our weather records

Arctic Village Weather History for the Previous 24 Hours

Scroll right to see more
 ConditionsComfort  
Time TempWeatherWind HumidityBarometerVisibility
10:56 pm
Thu, Jan 23
-16 °FPassing clouds.5 mph82%30.08 "Hg9 mi
9:56 pm-16 °FOvercast.3 mph78%30.09 "Hg9 mi
8:56 pm-16 °FPassing clouds.3 mph82%30.09 "Hg10 mi
7:56 pm-16 °FPassing clouds.No wind82%30.09 "Hg10 mi
6:56 pm-14 °FOvercast.No wind78%30.09 "Hg10 mi
5:56 pm-18 °FPassing clouds.5 mph77%30.09 "Hg10 mi
5:04 pm-11 °FPassing clouds.3 mph76%29.74 "Hg10 mi
4:56 pm-11 °FPassing clouds.No wind78%30.07 "Hg9 mi
3:56 pmN/AOvercast.No windN/A30.05 "Hg10 mi
2:56 pm-12 °FOvercast.No wind81%30.05 "Hg10 mi
1:56 pm-11 °FOvercast.No wind78%30.03 "Hg10 mi
12:56 pm-14 °FOvercast.3 mph82%30.04 "Hg9 mi
11:56 am-19 °FOvercast.5 mph77%30.04 "Hg9 mi
10:56 am-24 °FLight snow. Overcast.5 mph76%30.04 "Hg7 mi
9:56 am-23 °FLight snow. Overcast.5 mph73%30.01 "Hg6 mi
9:35 am-24 °FLight snow. Overcast.5 mph75%29.66 "Hg9 mi
8:56 am-26 °FOvercast.No wind76%30.01 "Hg9 mi
7:56 am-29 °FOvercast.3 mph75%30.00 "Hg9 mi
6:56 am-35 °FOvercast.No windN/A30.00 "Hg10 mi
5:56 am-35 °FOvercast.3 mphN/A29.99 "Hg10 mi
5:44 am-35 °FPassing clouds.5 mphN/A29.62 "Hg7 mi
4:56 am-35 °FClear.5 mphN/A29.97 "Hg6 mi
3:56 am-35 °FClear.No windN/A29.97 "Hg7 mi
2:56 am-33 °FClear.3 mphN/A29.96 "Hg10 mi
1:56 am-31 °FClear.3 mphN/A29.94 "Hg8 mi
12:56 am-31 °FClear.5 mphN/A29.94 "Hg7 mi
Weather by CustomWeather, © 2020

See weather overview

Advertising